| time (UTC) | temp F | wind direction | speed MPH | gust MPH | rain 1hr in | rain 24hr in | rain mn in | humidity % | barometer mb |
| 20260902132544 | 60 | 0 | 0.0 | 0.0 | 0.00 | 0.01 | 0.00 | 47 | 1025.4 |
| 20260902132048 | 59 | 0 | 0.0 | 0.0 | 0.00 | 0.01 | 0.00 | 47 | 1025.2 |
| 20260902131555 | 59 | 0 | 0.0 | 4.0 | 0.00 | 0.01 | 0.00 | 47 | 1025.2 |
| 20260902131046 | 59 | 0 | 0.0 | 4.0 | 0.00 | 0.01 | 0.00 | 47 | 1025.2 |
| 20260902130546 | 59 | 0 | 0.0 | 4.0 | 0.00 | 0.01 | 0.00 | 48 | 1025.1 |
| 20260902130057 | 58 | 0 | 0.0 | 0.0 | 0.00 | 0.01 | 0.00 | 49 | 1024.9 |
| 20260902125547 | 58 | 0 | 0.0 | 7.0 | 0.00 | 0.01 | 0.00 | 50 | 1024.9 |
| 20260902125045 | 58 | 0 | 0.0 | 7.0 | 0.00 | 0.01 | 0.00 | 50 | 1024.8 |
| 20260902124556 | 57 | 0 | 1.0 | 7.0 | 0.00 | 0.01 | 0.00 | 51 | 1024.8 |
| 20260902124044 | 57 | 0 | 0.0 | 7.0 | 0.00 | 0.01 | 0.00 | 52 | 1024.8 |
| 20260902123544 | 56 | 0 | 0.0 | 1.0 | 0.00 | 0.01 | 0.00 | 55 | 1024.8 |
| 20260902123106 | 56 | 0 | 0.0 | 1.0 | 0.00 | 0.01 | 0.00 | 55 | 1024.7 |
| 20260902122545 | 56 | 0 | 0.0 | 0.0 | 0.00 | 0.01 | 0.00 | 55 | 1024.7 |
| 20260902122047 | 57 | 0 | 0.0 | 3.0 | 0.00 | 0.01 | 0.00 | 55 | 1024.7 |
| 20260902121600 | 57 | 0 | 0.0 | 4.0 | 0.00 | 0.01 | 0.00 | 55 | 1024.7 |
| 20260902121046 | 57 | 0 | 0.0 | 4.0 | 0.00 | 0.01 | 0.00 | 55 | 1024.6 |
| 20260902120545 | 57 | 0 | 0.0 | 9.0 | 0.00 | 0.01 | 0.00 | 56 | 1024.5 |
| 20260902120059 | 57 | 0 | 0.0 | 9.0 | 0.00 | 0.01 | 0.00 | 56 | 1024.6 |
| 20260902115544 | 57 | 0 | 0.0 | 5.0 | 0.00 | 0.01 | 0.00 | 56 | 1024.4 |
| 20260902115044 | 57 | 278 | 0.0 | 6.0 | 0.00 | 0.01 | 0.00 | 56 | 1024.4 |
| 20260902114556 | 58 | 0 | 0.0 | 8.0 | 0.00 | 0.01 | 0.00 | 55 | 1024.4 |
| 20260902114044 | 58 | 261 | 0.0 | 8.0 | 0.00 | 0.01 | 0.00 | 55 | 1024.5 |
| 20260902113544 | 58 | 0 | 1.0 | 6.0 | 0.00 | 0.01 | 0.00 | 55 | 1024.4 |
| 20260902113102 | 58 | 259 | 0.0 | 5.0 | 0.00 | 0.01 | 0.00 | 54 | 1024.4 |
| 20260902112547 | 58 | 0 | 0.0 | 5.0 | 0.00 | 0.01 | 0.00 | 54 | 1024.4 |
| 20260902112043 | 59 | 0 | 0.0 | 4.0 | 0.00 | 0.01 | 0.00 | 53 | 1024.5 |
| 20260902111607 | 59 | 0 | 0.0 | 4.0 | 0.00 | 0.01 | 0.00 | 53 | 1024.5 |
| 20260902111046 | 58 | 0 | 0.0 | 4.0 | 0.00 | 0.01 | 0.00 | 54 | 1024.6 |
| 20260902110546 | 58 | 0 | 0.0 | 13.0 | 0.00 | 0.01 | 0.00 | 55 | 1024.6 |
| 20260902110058 | 58 | 0 | 1.0 | 13.0 | 0.00 | 0.01 | 0.00 | 56 | 1024.6 |
| 20260902105550 | 57 | 263 | 0.0 | 4.0 | 0.00 | 0.01 | 0.00 | 56 | 1024.7 |
| 20260902105044 | 57 | 0 | 0.0 | 4.0 | 0.00 | 0.01 | 0.00 | 56 | 1024.8 |
| 20260902104603 | 57 | 0 | 0.0 | 4.0 | 0.00 | 0.01 | 0.00 | 56 | 1024.8 |
| 20260902104044 | 57 | 0 | 0.0 | 3.0 | 0.00 | 0.01 | 0.00 | 57 | 1024.8 |
| 20260902103548 | 57 | 0 | 0.0 | 2.0 | 0.00 | 0.01 | 0.00 | 56 | 1024.7 |
| 20260902103052 | 57 | 0 | 0.0 | 0.0 | 0.00 | 0.01 | 0.00 | 55 | 1024.7 |
| 20260902102544 | 57 | 0 | 0.0 | 0.0 | 0.00 | 0.01 | 0.00 | 55 | 1024.7 |
| 20260902102044 | 57 | 0 | 0.0 | 0.0 | 0.00 | 0.01 | 0.00 | 55 | 1024.6 |
| 20260902101600 | 57 | 0 | 0.0 | 0.0 | 0.00 | 0.01 | 0.00 | 54 | 1024.7 |
| 20260902101046 | 58 | 0 | 0.0 | 0.0 | 0.00 | 0.01 | 0.00 | 54 | 1024.7 |
| 20260902100544 | 58 | 0 | 0.0 | 7.0 | 0.00 | 0.01 | 0.00 | 54 | 1024.7 |
| 20260902100058 | 58 | 0 | 0.0 | 7.0 | 0.00 | 0.01 | 0.00 | 53 | 1024.7 |
| 20260902095545 | 58 | 278 | 0.0 | 4.0 | 0.00 | 0.01 | 0.00 | 53 | 1024.6 |
| 20260902095043 | 58 | 293 | 0.0 | 2.0 | 0.00 | 0.01 | 0.00 | 53 | 1024.6 |
| 20260902094558 | 58 | 0 | 0.0 | 3.0 | 0.00 | 0.01 | 0.00 | 53 | 1024.6 |
| 20260902094044 | 58 | 0 | 0.0 | 3.0 | 0.00 | 0.01 | 0.00 | 53 | 1024.6 |
| 20260902093545 | 58 | 0 | 0.0 | 5.0 | 0.00 | 0.01 | 0.00 | 53 | 1024.6 |
| 20260902093101 | 59 | 0 | 0.0 | 5.0 | 0.00 | 0.01 | 0.00 | 53 | 1024.7 |
| 20260902092544 | 59 | 0 | 0.0 | 5.0 | 0.00 | 0.01 | 0.00 | 52 | 1024.7 |
| 20260902092044 | 59 | 0 | 0.0 | 5.0 | 0.00 | 0.01 | 0.00 | 51 | 1024.8 |
| 20260902091603 | 59 | 0 | 0.0 | 1.0 | 0.00 | 0.01 | 0.00 | 51 | 1024.8 |
| 20260902091044 | 59 | 0 | 0.0 | 3.0 | 0.00 | 0.01 | 0.00 | 51 | 1024.8 |
| 20260902090544 | 59 | 0 | 0.0 | 3.0 | 0.00 | 0.01 | 0.00 | 51 | 1024.8 |
| 20260902090120 | 59 | 0 | 0.0 | 4.0 | 0.00 | 0.01 | 0.00 | 51 | 1024.8 |
| 20260902085543 | 59 | 0 | 0.0 | 5.0 | 0.00 | 0.01 | 0.00 | 51 | 1024.9 |
| 20260902085047 | 59 | 311 | 0.0 | 5.0 | 0.00 | 0.01 | 0.00 | 51 | 1024.7 |
| 20260902084604 | 59 | 0 | 0.0 | 5.0 | 0.00 | 0.01 | 0.00 | 51 | 1024.7 |
| 20260902084046 | 59 | 0 | 0.0 | 5.0 | 0.00 | 0.01 | 0.00 | 52 | 1024.7 |
| 20260902083543 | 59 | 0 | 0.0 | 7.0 | 0.00 | 0.01 | 0.00 | 52 | 1024.7 |
| 20260902083106 | 59 | 0 | 0.0 | 7.0 | 0.00 | 0.01 | 0.00 | 52 | 1024.7 |
| 20260902082544 | 59 | 0 | 0.0 | 4.0 | 0.00 | 0.01 | 0.00 | 52 | 1024.7 |
| 20260902082044 | 59 | 0 | 0.0 | 4.0 | 0.00 | 0.01 | 0.00 | 52 | 1024.9 |
| 20260902081550 | 59 | 0 | 0.0 | 1.0 | 0.00 | 0.01 | 0.00 | 53 | 1024.9 |
| 20260902081044 | 59 | 0 | 0.0 | 5.0 | 0.00 | 0.01 | 0.00 | 52 | 1024.9 |
| 20260902080546 | 59 | 0 | 0.0 | 5.0 | 0.00 | 0.01 | 0.00 | 52 | 1024.9 |
| 20260902080059 | 59 | 0 | 0.0 | 5.0 | 0.00 | 0.01 | 0.00 | 52 | 1024.9 |
| 20260902075544 | 59 | 0 | 0.0 | 5.0 | 0.00 | 0.01 | 0.00 | 52 | 1024.9 |
| 20260902075043 | 59 | 0 | 0.0 | 4.0 | 0.00 | 0.01 | 0.00 | 52 | 1024.9 |
| 20260902074603 | 59 | 0 | 0.0 | 4.0 | 0.00 | 0.01 | 0.00 | 52 | 1024.9 |
| 20260902074045 | 59 | 0 | 0.0 | 4.0 | 0.00 | 0.01 | 0.00 | 51 | 1025.0 |
| 20260902073546 | 59 | 0 | 0.0 | 3.0 | 0.00 | 0.01 | 0.00 | 51 | 1025.0 |
| 20260902073055 | 60 | 0 | 0.0 | 5.0 | 0.00 | 0.01 | 0.00 | 51 | 1025.0 |
| 20260902072543 | 60 | 0 | 0.0 | 5.0 | 0.00 | 0.01 | 0.00 | 50 | 1025.0 |
| 20260902072046 | 60 | 240 | 0.0 | 4.0 | 0.00 | 0.01 | 0.00 | 51 | 1025.0 |
| 20260902071605 | 59 | 0 | 0.0 | 4.0 | 0.00 | 0.01 | 0.00 | 51 | 1024.9 |
| 20260902071045 | 59 | 0 | 0.0 | 4.0 | 0.00 | 0.01 | 0.00 | 52 | 1024.9 |
| 20260902070545 | 59 | 0 | 0.0 | 2.0 | 0.00 | 0.01 | 0.00 | 52 | 1025.0 |
| 20260902065546 | 59 | 0 | 0.0 | 1.0 | 0.00 | 0.01 | 0.00 | 53 | 1025.0 |
| 20260902065046 | 59 | 0 | 0.0 | 1.0 | 0.00 | 0.01 | 0.00 | 52 | 1025.2 |
| 20260902064558 | 59 | 0 | 0.0 | 1.0 | 0.00 | 0.01 | 0.00 | 53 | 1025.2 |
| 20260902064047 | 58 | 0 | 0.0 | 1.0 | 0.00 | 0.01 | 0.00 | 53 | 1025.2 |
| 20260902063545 | 58 | 0 | 0.0 | 0.0 | 0.00 | 0.01 | 0.00 | 54 | 1025.1 |
| 20260902063103 | 58 | 0 | 0.0 | 2.0 | 0.00 | 0.01 | 0.00 | 54 | 1025.2 |
| 20260902062546 | 57 | 0 | 0.0 | 2.0 | 0.00 | 0.01 | 0.00 | 55 | 1025.1 |
| 20260902062045 | 57 | 0 | 0.0 | 0.0 | 0.00 | 0.01 | 0.00 | 56 | 1025.1 |
| 20260902061045 | 57 | 0 | 0.0 | 0.0 | 0.00 | 0.01 | 0.00 | 54 | 1025.2 |
| 20260902060546 | 57 | 0 | 0.0 | 0.0 | 0.00 | 0.01 | 0.00 | 53 | 1025.3 |
| 20260902055545 | 58 | 0 | 0.0 | 0.0 | 0.00 | 0.02 | 0.01 | 51 | 1025.3 |
| 20260902055046 | 58 | 0 | 0.0 | 0.0 | 0.00 | 0.02 | 0.01 | 51 | 1025.3 |
| 20260902054611 | 59 | 0 | 0.0 | 0.0 | 0.00 | 0.02 | 0.01 | 50 | 1025.3 |
| 20260902054046 | 59 | 0 | 0.0 | 0.0 | 0.00 | 0.02 | 0.01 | 50 | 1025.2 |
| 20260902053546 | 59 | 0 | 0.0 | 0.0 | 0.00 | 0.02 | 0.01 | 49 | 1025.2 |
| 20260902053105 | 60 | 0 | 0.0 | 1.0 | 0.00 | 0.02 | 0.01 | 49 | 1025.1 |
| 20260902052546 | 60 | 0 | 0.0 | 4.0 | 0.00 | 0.02 | 0.01 | 49 | 1025.1 |
| 20260902052045 | 60 | 0 | 0.0 | 4.0 | 0.00 | 0.02 | 0.01 | 49 | 1025.2 |
| 20260902051602 | 59 | 0 | 0.0 | 4.0 | 0.00 | 0.02 | 0.01 | 51 | 1025.1 |
| 20260902051046 | 59 | 0 | 0.0 | 1.0 | 0.00 | 0.02 | 0.01 | 51 | 1025.1 |
| 20260902050549 | 59 | 0 | 0.0 | 2.0 | 0.00 | 0.02 | 0.01 | 52 | 1025.1 |
| 20260902045546 | 58 | 0 | 0.0 | 0.0 | 0.00 | 0.02 | 0.01 | 53 | 1025.2 |
| 20260902045045 | 58 | 0 | 0.0 | 0.0 | 0.00 | 0.02 | 0.01 | 54 | 1025.3 |
| 20260902044558 | 58 | 0 | 0.0 | 0.0 | 0.00 | 0.02 | 0.01 | 54 | 1025.4 |
| 20260902044047 | 58 | 0 | 0.0 | 0.0 | 0.00 | 0.02 | 0.01 | 53 | 1025.4 |
| 20260902043546 | 58 | 0 | 0.0 | 0.0 | 0.00 | 0.02 | 0.01 | 52 | 1025.5 |
| 20260902043057 | 58 | 0 | 0.0 | 0.0 | 0.00 | 0.02 | 0.01 | 52 | 1025.5 |
| 20260902042546 | 59 | 0 | 0.0 | 0.0 | 0.00 | 0.02 | 0.01 | 51 | 1025.6 |
| 20260902042046 | 59 | 0 | 0.0 | 0.0 | 0.00 | 0.02 | 0.01 | 51 | 1025.7 |
| 20260902041553 | 59 | 0 | 0.0 | 0.0 | 0.00 | 0.02 | 0.01 | 51 | 1025.7 |
| 20260902041050 | 59 | 0 | 0.0 | 0.0 | 0.00 | 0.02 | 0.01 | 50 | 1025.6 |
| 20260902040545 | 60 | 0 | 0.0 | 0.0 | 0.00 | 0.02 | 0.01 | 51 | 1025.5 |
| 20260902040107 | 60 | 0 | 0.0 | 0.0 | 0.00 | 0.02 | 0.01 | 50 | 1025.7 |
| 20260902035544 | 60 | 0 | 0.0 | 0.0 | 0.00 | 0.03 | 0.01 | 50 | 1025.6 |
| 20260902035046 | 61 | 0 | 0.0 | 0.0 | 0.00 | 0.03 | 0.01 | 49 | 1025.6 |
| 20260902034601 | 61 | 0 | 0.0 | 0.0 | 0.00 | 0.03 | 0.01 | 49 | 1025.6 |
| 20260902034046 | 61 | 0 | 0.0 | 0.0 | 0.00 | 0.03 | 0.01 | 48 | 1025.6 |
| 20260902033543 | 61 | 0 | 0.0 | 0.0 | 0.00 | 0.03 | 0.01 | 50 | 1025.6 |
| 20260902033057 | 61 | 0 | 0.0 | 0.0 | 0.00 | 0.03 | 0.01 | 49 | 1025.7 |
| 20260902032545 | 61 | 0 | 0.0 | 0.0 | 0.00 | 0.03 | 0.01 | 48 | 1025.6 |
| 20260902032048 | 61 | 0 | 0.0 | 0.0 | 0.00 | 0.03 | 0.01 | 48 | 1025.6 |
| 20260902031554 | 62 | 0 | 0.0 | 0.0 | 0.00 | 0.03 | 0.01 | 47 | 1025.5 |
| 20260902031046 | 62 | 0 | 0.0 | 0.0 | 0.00 | 0.03 | 0.01 | 47 | 1025.6 |
| 20260902030543 | 62 | 0 | 0.0 | 0.0 | 0.00 | 0.03 | 0.01 | 46 | 1025.6 |
| 20260902030058 | 62 | 0 | 0.0 | 0.0 | 0.00 | 0.03 | 0.01 | 46 | 1025.5 |
| 20260902025546 | 62 | 0 | 0.0 | 0.0 | 0.00 | 0.06 | 0.01 | 45 | 1025.4 |
| 20260902025047 | 62 | 0 | 0.0 | 0.0 | 0.00 | 0.06 | 0.01 | 46 | 1025.3 |
| 20260902024557 | 62 | 0 | 0.0 | 0.0 | 0.00 | 0.06 | 0.01 | 46 | 1025.2 |
| 20260902024046 | 62 | 0 | 0.0 | 0.0 | 0.00 | 0.06 | 0.01 | 44 | 1025.2 |
| 20260902023543 | 62 | 0 | 0.0 | 0.0 | 0.00 | 0.06 | 0.01 | 44 | 1025.2 |
| 20260902023110 | 63 | 0 | 0.0 | 0.0 | 0.00 | 0.06 | 0.01 | 43 | 1025.1 |
| 20260902022546 | 64 | 0 | 0.0 | 0.0 | 0.00 | 0.06 | 0.01 | 43 | 1025.0 |
| 20260902022046 | 64 | 0 | 0.0 | 0.0 | 0.00 | 0.06 | 0.01 | 42 | 1024.9 |
| 20260902021601 | 65 | 0 | 0.0 | 0.0 | 0.00 | 0.06 | 0.01 | 40 | 1024.9 |
| 20260902021045 | 65 | 0 | 0.0 | 0.0 | 0.00 | 0.06 | 0.01 | 40 | 1024.9 |
| 20260902020545 | 66 | 0 | 0.0 | 0.0 | 0.00 | 0.06 | 0.01 | 38 | 1024.9 |
| 20260902020058 | 67 | 0 | 0.0 | 0.0 | 0.00 | 0.06 | 0.01 | 38 | 1024.8 |
| 20260902015546 | 68 | 0 | 0.0 | 2.0 | 0.00 | 0.06 | 0.01 | 38 | 1024.7 |
| 20260902015046 | 68 | 0 | 0.0 | 2.0 | 0.00 | 0.06 | 0.01 | 36 | 1024.7 |
| 20260902014553 | 69 | 0 | 0.0 | 0.0 | 0.00 | 0.06 | 0.01 | 35 | 1024.7 |
| 20260902014047 | 69 | 0 | 0.0 | 0.0 | 0.00 | 0.06 | 0.01 | 35 | 1024.7 |
| 20260902013545 | 70 | 0 | 0.0 | 0.0 | 0.00 | 0.06 | 0.01 | 33 | 1024.8 |
| 20260902013058 | 70 | 0 | 0.0 | 0.0 | 0.00 | 0.06 | 0.01 | 33 | 1024.6 |
| 20260902012547 | 71 | 0 | 0.0 | 0.0 | 0.00 | 0.06 | 0.01 | 32 | 1024.5 |
| 20260902012046 | 71 | 0 | 0.0 | 2.0 | 0.00 | 0.06 | 0.01 | 32 | 1024.5 |
| 20260902011557 | 71 | 0 | 0.0 | 5.0 | 0.00 | 0.06 | 0.01 | 32 | 1024.5 |
| 20260902011046 | 71 | 0 | 0.0 | 5.0 | 0.00 | 0.06 | 0.01 | 31 | 1024.4 |
| 20260902010545 | 71 | 9 | 0.0 | 5.0 | 0.00 | 0.06 | 0.01 | 31 | 1024.4 |
| 20260902010058 | 72 | 0 | 0.0 | 0.0 | 0.00 | 0.06 | 0.01 | 32 | 1024.4 |
| 20260902005544 | 72 | 0 | 0.0 | 0.0 | 0.00 | 0.09 | 0.01 | 31 | 1024.4 |
| 20260902005049 | 72 | 0 | 0.0 | 5.0 | 0.00 | 0.09 | 0.01 | 31 | 1024.4 |
| 20260902004558 | 72 | 0 | 0.0 | 5.0 | 0.00 | 0.09 | 0.01 | 31 | 1024.4 |
| 20260902004046 | 72 | 299 | 0.0 | 0.0 | 0.00 | 0.09 | 0.01 | 31 | 1024.4 |
| 20260902003545 | 73 | 0 | 0.0 | 0.0 | 0.00 | 0.09 | 0.01 | 29 | 1024.3 |
| 20260902003055 | 73 | 0 | 0.0 | 10.0 | 0.00 | 0.09 | 0.01 | 29 | 1024.4 |
| 20260902002545 | 73 | 0 | 0.0 | 10.0 | 0.00 | 0.09 | 0.01 | 30 | 1024.5 |
| 20260902002044 | 73 | 0 | 0.0 | 10.0 | 0.00 | 0.09 | 0.01 | 30 | 1024.5 |
| 20260902001619 | 73 | 278 | 1.0 | 7.0 | 0.00 | 0.09 | 0.01 | 29 | 1024.6 |
| 20260902001046 | 73 | 0 | 0.0 | 6.0 | 0.00 | 0.09 | 0.01 | 30 | 1024.5 |
| 20260902000543 | 74 | 210 | 0.0 | 6.0 | 0.00 | 0.09 | 0.01 | 29 | 1024.4 |
| 20260902000104 | 74 | 0 | 0.0 | 3.0 | 0.00 | 0.09 | 0.01 | 29 | 1024.4 |
| 20260901235547 | 74 | 0 | 0.0 | 3.0 | 0.00 | 0.09 | 0.01 | 29 | 1024.4 |
| 20260901235043 | 75 | 0 | 0.0 | 7.0 | 0.00 | 0.09 | 0.01 | 28 | 1024.3 |
| 20260901234554 | 75 | 0 | 0.0 | 8.0 | 0.00 | 0.09 | 0.01 | 28 | 1024.4 |
| 20260901234046 | 75 | 0 | 0.0 | 8.0 | 0.00 | 0.09 | 0.01 | 28 | 1024.3 |
| 20260901233547 | 75 | 273 | 0.0 | 6.0 | 0.00 | 0.09 | 0.01 | 27 | 1024.3 |
| 20260901233056 | 76 | 237 | 0.0 | 6.0 | 0.00 | 0.09 | 0.01 | 27 | 1024.2 |
| 20260901232546 | 76 | 0 | 0.0 | 6.0 | 0.00 | 0.09 | 0.01 | 27 | 1024.3 |
| 20260901232043 | 76 | 0 | 0.0 | 4.0 | 0.00 | 0.09 | 0.01 | 28 | 1024.2 |
| 20260901231604 | 76 | 0 | 0.0 | 4.0 | 0.00 | 0.09 | 0.01 | 29 | 1024.1 |
| 20260901231045 | 76 | 0 | 0.0 | 10.0 | 0.00 | 0.09 | 0.01 | 27 | 1024.2 |
| 20260901230544 | 76 | 0 | 2.0 | 10.0 | 0.00 | 0.09 | 0.01 | 28 | 1024.2 |
| 20260901230058 | 76 | 0 | 1.0 | 7.0 | 0.00 | 0.09 | 0.01 | 28 | 1024.1 |
| 20260901225546 | 76 | 0 | 2.0 | 9.0 | 0.00 | 0.09 | 0.01 | 27 | 1024.2 |
| 20260901225043 | 76 | 244 | 0.0 | 9.0 | 0.00 | 0.09 | 0.01 | 27 | 1024.3 |
| 20260901224555 | 76 | 227 | 1.0 | 9.0 | 0.00 | 0.09 | 0.01 | 28 | 1024.2 |
| 20260901224043 | 76 | 235 | 0.0 | 7.0 | 0.00 | 0.09 | 0.01 | 28 | 1024.3 |
| 20260901223546 | 76 | 0 | 1.0 | 9.0 | 0.00 | 0.09 | 0.01 | 29 | 1024.3 |
| 20260901223059 | 76 | 0 | 1.0 | 10.0 | 0.00 | 0.09 | 0.01 | 29 | 1024.3 |
| 20260901222543 | 76 | 206 | 4.0 | 10.0 | 0.00 | 0.09 | 0.01 | 28 | 1024.4 |
| 20260901222047 | 77 | 277 | 1.0 | 9.0 | 0.00 | 0.09 | 0.01 | 28 | 1024.4 |
| 20260901221618 | 77 | 0 | 1.0 | 7.0 | 0.00 | 0.09 | 0.01 | 27 | 1024.4 |
| 20260901221047 | 77 | 302 | 0.0 | 10.0 | 0.00 | 0.09 | 0.01 | 27 | 1024.3 |
| 20260901220543 | 77 | 295 | 1.0 | 13.0 | 0.00 | 0.09 | 0.01 | 27 | 1024.2 |
| 20260901220116 | 78 | 0 | 2.0 | 13.0 | 0.00 | 0.09 | 0.01 | 26 | 1024.4 |
| 20260901215547 | 78 | 263 | 1.0 | 7.0 | 0.00 | 0.09 | 0.01 | 28 | 1024.3 |
| 20260901215047 | 77 | 0 | 0.0 | 7.0 | 0.00 | 0.09 | 0.01 | 28 | 1024.4 |
| 20260901214557 | 77 | 0 | 0.0 | 8.0 | 0.00 | 0.09 | 0.01 | 29 | 1024.5 |
| 20260901214046 | 76 | 355 | 0.0 | 8.0 | 0.00 | 0.09 | 0.01 | 29 | 1024.7 |
| 20260901213548 | 75 | 250 | 2.0 | 11.0 | 0.00 | 0.09 | 0.01 | 29 | 1024.6 |
| 20260901213107 | 74 | 210 | 2.0 | 11.0 | 0.00 | 0.09 | 0.01 | 31 | 1024.7 |
| 20260901212547 | 73 | 286 | 2.0 | 10.0 | 0.00 | 0.09 | 0.01 | 29 | 1024.7 |
| 20260901212051 | 73 | 279 | 0.0 | 13.0 | 0.00 | 0.09 | 0.01 | 31 | 1024.8 |
| 20260901211557 | 73 | 317 | 1.0 | 15.0 | 0.00 | 0.09 | 0.01 | 29 | 1024.8 |
| 20260901211046 | 74 | 0 | 1.0 | 15.0 | 0.00 | 0.09 | 0.01 | 30 | 1024.9 |
| 20260901210544 | 75 | 285 | 3.0 | 15.0 | 0.00 | 0.09 | 0.01 | 29 | 1025.1 |
| 20260901210057 | 75 | 257 | 3.0 | 9.0 | 0.00 | 0.09 | 0.01 | 30 | 1025.0 |
| 20260901205548 | 75 | 0 | 2.0 | 9.0 | 0.00 | 0.09 | 0.01 | 31 | 1025.0 |
| 20260901205051 | 74 | 0 | 0.0 | 10.0 | 0.00 | 0.09 | 0.01 | 30 | 1025.0 |
| 20260901204606 | 74 | 0 | 2.0 | 10.0 | 0.00 | 0.09 | 0.01 | 29 | 1025.1 |
| 20260901204046 | 74 | 293 | 1.0 | 12.0 | 0.00 | 0.09 | 0.01 | 30 | 1025.2 |
| 20260901203546 | 74 | 277 | 1.0 | 12.0 | 0.00 | 0.09 | 0.01 | 29 | 1025.2 |
| 20260901203056 | 75 | 0 | 2.0 | 10.0 | 0.00 | 0.09 | 0.01 | 29 | 1025.2 |
| 20260901202546 | 76 | 188 | 2.0 | 10.0 | 0.00 | 0.09 | 0.01 | 29 | 1025.3 |
| 20260901202046 | 77 | 0 | 3.0 | 11.0 | 0.00 | 0.09 | 0.01 | 28 | 1025.3 |
| 20260901201600 | 77 | 260 | 2.0 | 11.0 | 0.00 | 0.09 | 0.01 | 30 | 1025.3 |
| 20260901201048 | 77 | 197 | 0.0 | 8.0 | 0.00 | 0.09 | 0.01 | 30 | 1025.3 |
| 20260901200547 | 76 | 208 | 2.0 | 10.0 | 0.00 | 0.09 | 0.01 | 32 | 1025.3 |
| 20260901200056 | 76 | 246 | 1.0 | 10.0 | 0.00 | 0.09 | 0.01 | 33 | 1025.5 |
| 20260901195544 | 75 | 0 | 3.0 | 10.0 | 0.00 | 0.09 | 0.01 | 34 | 1025.4 |
| 20260901195047 | 75 | 0 | 0.0 | 13.0 | 0.00 | 0.09 | 0.01 | 34 | 1025.4 |
| 20260901194556 | 76 | 0 | 2.0 | 13.0 | 0.00 | 0.09 | 0.01 | 32 | 1025.4 |
| 20260901194050 | 76 | 0 | 1.0 | 9.0 | 0.00 | 0.09 | 0.01 | 33 | 1025.5 |
| 20260901193546 | 76 | 0 | 0.0 | 9.0 | 0.00 | 0.09 | 0.01 | 32 | 1025.4 |
| 20260901193052 | 76 | 251 | 1.0 | 11.0 | 0.00 | 0.09 | 0.01 | 32 | 1025.4 |
| 20260901192546 | 76 | 198 | 0.0 | 11.0 | 0.00 | 0.09 | 0.01 | 32 | 1025.3 |
| 20260901192046 | 75 | 0 | 2.0 | 10.0 | 0.00 | 0.09 | 0.01 | 33 | 1025.3 |
| 20260901191610 | 74 | 305 | 2.0 | 10.0 | 0.00 | 0.09 | 0.01 | 35 | 1025.5 |
| 20260901191046 | 73 | 0 | 0.0 | 5.0 | 0.00 | 0.09 | 0.01 | 36 | 1025.5 |
| 20260901190549 | 73 | 0 | 0.0 | 5.0 | 0.00 | 0.09 | 0.01 | 36 | 1025.6 |
| 20260901190055 | 73 | 0 | 0.0 | 5.0 | 0.00 | 0.09 | 0.01 | 36 | 1025.6 |
| 20260901185547 | 74 | 9 | 0.0 | 5.0 | 0.01 | 0.09 | 0.01 | 36 | 1025.7 |
| 20260901185043 | 74 | 320 | 0.0 | 6.0 | 0.01 | 0.09 | 0.01 | 37 | 1025.8 |
| 20260901184550 | 74 | 0 | 0.0 | 7.0 | 0.01 | 0.09 | 0.01 | 38 | 1026.0 |
| 20260901184046 | 74 | 283 | 0.0 | 8.0 | 0.01 | 0.09 | 0.01 | 35 | 1025.9 |
| 20260901183546 | 74 | 188 | 1.0 | 8.0 | 0.01 | 0.09 | 0.01 | 35 | 1025.9 |
| 20260901183102 | 74 | 252 | 2.0 | 11.0 | 0.01 | 0.09 | 0.01 | 36 | 1026.1 |
| 20260901182547 | 73 | 0 | 1.0 | 12.0 | 0.01 | 0.09 | 0.01 | 35 | 1026.1 |
| 20260901182044 | 73 | 206 | 1.0 | 12.0 | 0.01 | 0.09 | 0.01 | 36 | 1026.1 |
| 20260901181605 | 73 | 227 | 1.0 | 9.0 | 0.01 | 0.09 | 0.01 | 38 | 1026.2 |
| 20260901181045 | 73 | 0 | 1.0 | 10.0 | 0.01 | 0.09 | 0.01 | 37 | 1026.2 |
| 20260901180547 | 73 | 211 | 1.0 | 10.0 | 0.01 | 0.09 | 0.01 | 38 | 1026.3 |
| 20260901180055 | 72 | 267 | 2.0 | 9.0 | 0.01 | 0.09 | 0.01 | 37 | 1026.4 |
| 20260901175544 | 72 | 278 | 1.0 | 10.0 | 0.00 | 0.08 | 0.00 | 38 | 1026.4 |
| 20260901175046 | 72 | 0 | 2.0 | 11.0 | 0.00 | 0.08 | 0.00 | 38 | 1026.4 |
| 20260901174552 | 71 | 220 | 2.0 | 11.0 | 0.00 | 0.08 | 0.00 | 38 | 1026.4 |
| 20260901174047 | 71 | 217 | 3.0 | 13.0 | 0.00 | 0.08 | 0.00 | 39 | 1026.5 |
| 20260901173546 | 71 | 308 | 2.0 | 13.0 | 0.00 | 0.08 | 0.00 | 39 | 1026.5 |
| 20260901173103 | 71 | 272 | 1.0 | 12.0 | 0.00 | 0.08 | 0.00 | 41 | 1026.5 |
| 20260901172544 | 70 | 307 | 1.0 | 12.0 | 0.00 | 0.08 | 0.00 | 42 | 1026.5 |
| 20260901172046 | 70 | 209 | 2.0 | 9.0 | 0.00 | 0.08 | 0.00 | 42 | 1026.7 |
| 20260901171601 | 70 | 253 | 1.0 | 8.0 | 0.00 | 0.08 | 0.00 | 43 | 1026.6 |
| 20260901171047 | 70 | 0 | 2.0 | 10.0 | 0.00 | 0.08 | 0.00 | 42 | 1026.7 |
| 20260901170547 | 69 | 0 | 0.0 | 10.0 | 0.00 | 0.08 | 0.00 | 42 | 1026.7 |
| 20260901170100 | 69 | 0 | 2.0 | 10.0 | 0.00 | 0.08 | 0.00 | 44 | 1026.7 |
| 20260901165543 | 69 | 274 | 2.0 | 11.0 | 0.00 | 0.08 | 0.00 | 45 | 1026.7 |
| 20260901165047 | 69 | 245 | 1.0 | 12.0 | 0.00 | 0.08 | 0.00 | 45 | 1026.7 |
| 20260901164556 | 68 | 213 | 2.0 | 12.0 | 0.00 | 0.08 | 0.00 | 45 | 1026.7 |
| 20260901164048 | 68 | 171 | 1.0 | 10.0 | 0.00 | 0.08 | 0.00 | 45 | 1026.5 |
| 20260901163546 | 68 | 262 | 3.0 | 11.0 | 0.00 | 0.08 | 0.00 | 46 | 1026.5 |
| 20260901163055 | 68 | 217 | 1.0 | 11.0 | 0.00 | 0.08 | 0.00 | 47 | 1026.4 |
| 20260901162545 | 67 | 0 | 4.0 | 11.0 | 0.00 | 0.08 | 0.00 | 49 | 1026.4 |
| 20260901162047 | 66 | 0 | 1.0 | 13.0 | 0.00 | 0.08 | 0.00 | 49 | 1026.4 |
| 20260901161607 | 66 | 0 | 3.0 | 13.0 | 0.00 | 0.08 | 0.00 | 51 | 1026.4 |
| 20260901161046 | 65 | 0 | 2.0 | 10.0 | 0.00 | 0.08 | 0.00 | 54 | 1026.4 |
| 20260901160547 | 65 | 0 | 2.0 | 10.0 | 0.00 | 0.08 | 0.00 | 56 | 1026.4 |
| 20260901160109 | 64 | 0 | 1.0 | 10.0 | 0.00 | 0.08 | 0.00 | 57 | 1026.4 |
| 20260901155544 | 64 | 186 | 2.0 | 9.0 | 0.00 | 0.08 | 0.00 | 57 | 1026.5 |
| 20260901155047 | 63 | 215 | 2.0 | 8.0 | 0.00 | 0.08 | 0.00 | 60 | 1026.5 |
| 20260901154600 | 63 | 0 | 0.0 | 9.0 | 0.00 | 0.08 | 0.00 | 62 | 1026.6 |
| 20260901154046 | 62 | 263 | 2.0 | 9.0 | 0.00 | 0.08 | 0.00 | 62 | 1026.6 |
| 20260901153547 | 61 | 254 | 1.0 | 9.0 | 0.00 | 0.08 | 0.00 | 65 | 1026.6 |
| 20260901153056 | 61 | 297 | 1.0 | 9.0 | 0.00 | 0.08 | 0.00 | 64 | 1026.6 |
| 20260901152543 | 61 | 0 | 0.0 | 8.0 | 0.00 | 0.08 | 0.00 | 66 | 1026.7 |
| 20260901152049 | 61 | 0 | 0.0 | 8.0 | 0.00 | 0.08 | 0.00 | 67 | 1026.7 |
| 20260901151611 | 60 | 297 | 1.0 | 8.0 | 0.00 | 0.08 | 0.00 | 67 | 1026.7 |
| 20260901151049 | 60 | 0 | 0.0 | 7.0 | 0.00 | 0.08 | 0.00 | 68 | 1026.8 |
| 20260901150546 | 60 | 0 | 1.0 | 7.0 | 0.00 | 0.08 | 0.00 | 68 | 1026.7 |
| 20260901150057 | 60 | 0 | 0.0 | 6.0 | 0.00 | 0.08 | 0.00 | 69 | 1026.7 |
| 20260901145547 | 60 | 0 | 0.0 | 4.0 | 0.00 | 0.08 | 0.00 | 68 | 1026.6 |
| 20260901145046 | 59 | 0 | 0.0 | 6.0 | 0.00 | 0.08 | 0.00 | 69 | 1026.6 |
| 20260901144559 | 59 | 286 | 0.0 | 6.0 | 0.00 | 0.08 | 0.00 | 69 | 1026.5 |
| 20260901144047 | 58 | 0 | 0.0 | 5.0 | 0.00 | 0.08 | 0.00 | 72 | 1026.5 |
| 20260901143546 | 58 | 0 | 0.0 | 5.0 | 0.00 | 0.08 | 0.00 | 73 | 1026.5 |
| 20260901143059 | 58 | 0 | 0.0 | 3.0 | 0.00 | 0.08 | 0.00 | 74 | 1026.6 |
| 20260901142543 | 58 | 0 | 0.0 | 3.0 | 0.00 | 0.08 | 0.00 | 74 | 1026.6 |
| 20260901142046 | 58 | 0 | 0.0 | 3.0 | 0.00 | 0.08 | 0.00 | 74 | 1026.6 |
| 20260901141559 | 57 | 0 | 0.0 | 8.0 | 0.00 | 0.08 | 0.00 | 74 | 1026.7 |
| 20260901141047 | 57 | 0 | 0.0 | 8.0 | 0.00 | 0.08 | 0.00 | 75 | 1026.6 |
| 20260901140546 | 57 | 0 | 0.0 | 9.0 | 0.00 | 0.08 | 0.00 | 75 | 1026.5 |
| 20260901140057 | 57 | 0 | 0.0 | 10.0 | 0.00 | 0.08 | 0.00 | 75 | 1026.4 |
| 20260901135547 | 57 | 204 | 1.0 | 10.0 | 0.00 | 0.08 | 0.00 | 75 | 1026.4 |
| 20260901135044 | 57 | 0 | 1.0 | 10.0 | 0.00 | 0.08 | 0.00 | 76 | 1026.4 |
| 20260901134558 | 57 | 0 | 2.0 | 8.0 | 0.00 | 0.08 | 0.00 | 76 | 1026.3 |
| 20260901134046 | 56 | 0 | 0.0 | 4.0 | 0.00 | 0.08 | 0.00 | 77 | 1026.2 |
| 20260901133548 | 56 | 269 | 0.0 | 4.0 | 0.00 | 0.08 | 0.00 | 77 | 1026.0 |
| 20260901133057 | 56 | 0 | 0.0 | 4.0 | 0.00 | 0.08 | 0.00 | 78 | 1025.9 |